RH
11 12 15 14 14 13 14 16 19 17 21 25 22 22 26 35 33 36 38 42 43 41 34 36 37 37 32 36 42 51 54 62 58 52 46 45 42 41 39 41 50 52 46 50
13 15 13 12 12 13 14 16 16 14 14 18 16 18 18 28 32 31 34 38 38 38 35 37 39 38 36 36 43 52 55 62 60 48 48 43 41 39 38 41 50 48 48 55
14 13 12 12 13 14 14 15 15 15 15 13 16 16 18 18 26 28 29 33 34 36 36 38 41 41 38 36 43 50 56 59 58 55 51 57 52 47 44 47 45 46 49 52
11 11 12 13 14 13 16 12 13 14 15 15 14 17 20 22 26 28 29 31 33 34 36 36 39 40 39 37 38 47 55 59 57 62 57 61 45 40 35 41 42 43 49 48
12 12 13 14 14 12 15 12 13 14 15 15 15 16 15 16 20 24 27 29 30 33 34 34 35 37 36 36 37 43 56 60 58 63 59 54 56 39 40 39 58 54 58 52
8 9 11 12 11 11 11 13 14 14 14 19 17 16 16 13 15 15 21 26 28 30 32 33 34 35 36 34 35 40 57 68 65 62 64 65 62 52 44 47 46 41 39 43
8 8 9 11 13 11 12 14 20 22 19 20 14 15 16 12 13 13 14 17 22 26 30 33 35 37 38 37 37 38 53 65 63 62 61 61 63 64 62 58 45 46 38 38
8 10 10 10 12 15 14 14 18 30 20 16 14 19 15 12 10 9 11 10 10 19 24 30 31 35 36 37 39 40 49 61 62 60 63 63 66 52 48 55 38 40 36 38
8 8 6 8 9 11 14 17 12 15 14 15 13 14 11 10 10 10 10 15 16 16 23 28 30 32 34 36 39 40 47 57 58 57 60 65 66 65 52 54 58 44 51 40
9 11 7 6 6 8 10 10 14 14 27 26 16 17 13 14 12 11 13 13 16 22 25 26 30 32 31 32 34 38 41 51 52 52 54 56 62 64 58 56 61 54 52 56
7 9 10 8 9 8 9 10 10 10 13 18 20 15 11 14 11 12 13 10 15 24 28 27 27 29 31 29 31 35 38 45 50 54 55 59 58 60 60 56 58 58 58 62
14 6 10 9 7 6 6 8 9 12 20 13 14 13 7 9 10 10 12 11 18 19 26 28 28 29 32 33 31 33 38 42 50 56 61 58 55 55 54 58 54 55 59 58
19 8 10 10 7 7 8 8 8 8 9 17 15 13 8 8 8 9 10 10 13 20 26 30 32 33 34 36 36 34 39 39 44 57 54 53 54 53 54 53 54 54 56 56
34 17 14 10 11 9 10 7 7 8 11 12 10 12 11 10 10 10 11 19 20 19 26 31 36 40 40 43 44 44 41 38 43 48 50 55 52 51 49 53 57 57 59 58
20 24 23 18 16 15 10 8 7 10 8 10 9 9 9 10 12 17 22 21 24 24 24 31 38 42 42 45 49 48 43 43 42 54 52 57 58 57 56 57 59 60 62 59
15 26 24 19 17 16 16 12 13 12 8 8 8 10 8 13 21 26 32 32 35 35 28 27 36 42 46 48 49 50 50 51 50 55 58 60 64 64 66 65 64 67 65 66
20 19 22 18 18 18 20 15 13 11 10 11 13 14 35 37 38 44 43 43 42 40 37 34 32 38 44 44 49 49 51 49 55 58 61 63 66 67 68 66 66 67 70 70
24 28 22 16 23 24 31 33 33 26 56 64 47 49 50 50 44 40 42 57 55 53 50 45 35 34 40 41 46 49 45 56 54 58 59 63 66 67 68 70 71 73 65 69
16 22 18 20 18 15 26 44 49 45 66 74 75 67 64 58 49 35 53 59 63 62 57 52 43 35 36 40 48 53 53 52 57 58 62 62 64 67 68 71 74 71 66 65
16 26 26 22 19 18 47 43 38 49 64 72 79 74 76 72 64 46 62 63 70 73 68 59 51 39 35 43 50 59 60 58 60 59 61 62 64 68 69 71 75 71 65 64
23 24 24 23 23 23 48 43 42 68 68 85 83 78 80 92 90 72 62 70 74 79 78 66 58 50 42 41 49 61 62 62 59 57 58 63 65 70 70 74 72 71 67 63
26 26 20 22 26 31 51 46 68 95 84 87 84 68 74 75 71 66 68 80 83 86 84 72 58 51 43 45 52 66 69 62 59 59 61 65 68 60 56 75 73 72 72 74
31 27 41 31 41 53 52 80 81 84 92 88 87 67 62 76 75 74 75 85 88 89 88 78 66 47 46 50 53 61 65 62 64 66 69 69 69 64 64 73 74 63 71 59
35 37 33 42 38 45 42 50 60 74 79 78 75 74 76 85 80 78 80 91 92 90 90 86 81 75 60 54 55 56 59 62 64 68 71 68 69 68 66 55 55 56 49 52
28 44 36 37 35 46 38 50 51 55 63 69 74 74 78 88 87 85 85 93 95 94 93 88 90 93 92 86 82 71 59 60 63 64 62 63 57 64 62 64 50 47 54 45
27 36 33 30 51 58 52 49 47 52 60 63 74 79 79 86 89 87 90 91 95 96 95 94 94 92 93 91 90 88 85 83 64 60 54 50 48 46 51 50 57 79 84 89
Wind_Speed
19 14 16 16 13 10 8 8 6 3 5 7 8 5 13 13 14 15 16 16 18 19 19 18 17 17 16 16 17 15 12 10 8 8 7 6 7 5 5 4 4 4 3 5
16 21 19 16 13 10 10 10 9 5 3 8 5 7 7 15 16 14 16 17 19 19 20 20 19 19 18 18 18 16 14 12 10 8 7 4 4 5 4 4 4 3 4 5
25 21 20 16 13 16 15 14 10 5 6 9 7 13 12 8 13 14 15 17 18 21 22 22 21 20 19 20 19 17 15 14 12 10 7 5 4 4 6 5 5 4 3 2
26 23 22 17 21 17 18 13 5 7 7 8 3 7 9 12 12 15 17 18 19 20 21 21 22 22 21 20 19 18 16 14 13 12 10 9 8 7 5 5 4 4 3 2
26 27 21 23 21 20 17 9 12 8 10 11 12 9 11 6 9 14 18 20 21 21 23 24 25 22 21 20 19 18 17 15 14 13 11 10 10 7 6 5 7 2 4 3
24 19 22 23 21 19 18 7 10 10 12 14 14 11 10 10 10 11 16 19 21 22 24 25 25 24 22 20 20 19 18 16 16 15 15 13 11 8 7 6 7 6 4 5
22 23 20 18 23 16 18 16 12 14 14 14 14 13 12 4 5 3 7 14 18 22 24 24 25 25 24 25 23 19 19 18 18 18 16 16 14 12 10 8 7 6 5 4
21 23 26 16 25 22 20 21 14 18 14 15 19 10 11 11 10 10 6 10 11 22 22 24 25 25 25 25 24 22 21 18 18 19 18 15 15 11 10 10 6 7 5 5
19 25 27 21 20 22 21 24 21 22 18 12 11 14 12 14 14 7 12 5 6 11 20 24 26 25 25 25 25 24 21 19 19 19 16 15 14 14 12 10 10 8 5 4
3 18 14 17 18 18 25 15 19 14 22 23 17 18 9 4 7 7 6 6 7 6 16 21 23 25 23 24 23 23 22 20 20 19 17 15 16 16 13 11 11 10 8 8
6 12 16 13 16 19 12 15 15 18 20 17 17 16 13 13 13 7 10 7 6 4 12 18 21 23 23 23 24 23 22 21 20 18 16 15 16 16 15 13 13 12 11 10
3 11 11 21 11 12 20 21 20 14 18 12 15 12 7 2 2 2 4 9 6 5 9 15 19 21 22 23 24 24 22 21 20 18 16 17 16 16 16 15 15 14 13 13
1 11 14 15 13 9 14 16 20 20 17 18 17 14 15 13 9 5 9 10 8 5 8 14 17 20 22 23 21 22 22 22 21 18 19 19 18 17 17 17 16 15 14 14
6 3 11 10 16 10 18 15 17 18 16 17 19 14 11 9 11 11 11 9 12 10 7 13 16 18 19 20 19 19 21 23 20 20 21 19 19 19 18 16 15 16 15 15
6 4 5 2 2 3 9 16 19 18 20 19 15 20 20 20 13 13 12 10 11 11 7 10 15 16 18 20 19 20 21 21 21 19 20 19 18 17 17 16 16 15 15 15
3 4 4 5 2 4 7 13 13 14 15 16 18 16 14 6 11 11 11 13 13 12 11 9 14 17 20 20 20 19 20 20 20 20 20 18 18 18 17 16 15 15 15 15
3 3 6 9 5 6 11 14 13 15 15 15 16 11 9 7 10 11 13 12 13 14 12 12 12 16 18 20 20 21 20 19 19 20 19 18 18 19 18 17 16 16 16 15
4 5 4 7 5 13 13 6 4 7 17 14 13 13 12 14 16 16 6 13 16 17 15 13 14 12 16 19 20 19 21 20 20 20 21 20 19 19 18 17 17 16 15 16
5 6 6 8 12 6 9 9 8 2 9 10 9 10 13 18 19 6 17 18 18 19 18 16 14 16 15 19 18 18 20 21 21 22 22 21 21 20 19 18 17 16 15 15
7 6 9 8 12 15 13 7 7 1 8 13 11 13 14 17 8 11 23 20 19 19 18 18 17 14 15 15 17 18 20 20 23 22 20 19 18 19 18 18 17 15 15 15
10 9 12 8 9 6 8 8 8 11 6 13 13 11 13 9 10 16 17 19 18 17 19 20 17 14 14 11 16 19 19 22 19 19 18 18 18 17 17 16 15 15 15 14
6 8 8 10 9 9 13 5 5 5 7 12 12 11 12 13 15 16 14 16 17 18 18 18 16 12 11 9 14 17 19 15 16 16 17 17 17 15 15 15 14 15 14 14
7 5 8 6 6 6 9 9 4 4 6 8 13 14 14 14 14 15 14 15 15 17 16 16 18 9 6 7 10 13 13 13 13 14 15 15 16 16 14 14 15 13 14 14
4 3 7 6 8 3 3 6 5 4 7 10 13 17 14 13 14 13 11 12 12 15 15 15 16 19 10 3 6 9 9 12 13 14 15 14 15 15 14 13 13 13 14 14
7 3 6 9 8 7 4 4 10 9 9 12 14 14 14 14 13 12 10 11 10 12 13 13 14 14 15 16 16 13 5 10 12 13 13 13 12 13 13 13 13 14 14 14
5 8 8 7 7 6 9 9 14 13 11 13 14 15 12 13 12 12 9 9 10 10 12 13 13 13 14 14 14 15 14 13 10 11 11 10 9 10 11 11 12 13 12 9
Wind_Direction
196 207 215 220 220 277 302 266 183 162 133 219 241 245 168 183 198 185 185 186 192 193 187 181 186 183 181 181 181 183 185 171 183 177 178 172 173 159 158 138 130 143 86 76
192 223 215 227 224 223 225 226 207 141 203 243 248 255 227 175 208 198 191 189 195 191 189 185 187 187 187 183 182 185 186 177 195 183 195 205 167 172 138 141 127 106 87 90
218 213 222 209 207 219 223 229 210 240 170 233 271 253 214 202 199 211 202 198 199 194 192 189 188 191 191 185 186 187 191 180 196 195 184 181 163 171 181 165 172 140 126 123
222 223 209 207 220 215 221 216 241 220 237 236 236 274 165 169 196 207 203 202 200 199 197 192 192 194 196 192 188 187 192 189 194 194 189 200 201 191 177 175 129 150 171 166
212 217 204 215 219 210 238 180 226 234 243 254 230 245 267 166 203 201 208 203 205 197 196 195 196 195 199 195 192 193 191 194 200 193 217 192 224 191 178 173 151 189 151 221
236 212 221 219 220 223 230 198 217 227 252 246 237 259 267 215 203 203 192 203 203 203 199 199 194 195 199 199 199 194 192 198 201 200 203 210 202 217 187 197 181 188 180 178
215 224 219 224 218 199 228 212 218 218 225 239 240 237 242 73 151 292 206 197 208 207 203 198 195 196 198 200 199 195 193 199 200 202 202 207 213 207 202 195 210 195 195 199
206 207 203 192 223 205 216 224 233 226 229 234 217 226 240 250 267 253 272 259 252 200 208 201 197 196 198 199 198 197 192 199 199 201 203 204 207 208 212 203 220 209 215 187
205 216 192 219 214 223 201 224 239 252 256 260 228 211 233 253 249 237 261 275 287 237 203 199 198 195 196 197 199 199 196 200 200 201 199 200 203 218 207 201 205 206 214 178
215 209 188 193 215 213 239 200 220 233 240 241 228 249 240 215 231 171 219 297 326 249 198 197 197 195 197 197 198 201 199 200 201 202 200 202 204 207 210 202 204 218 202 223
227 248 156 173 208 185 193 222 219 237 221 240 237 238 228 236 263 294 314 334 349 266 199 197 195 195 198 195 199 200 203 199 200 201 199 203 205 205 209 209 208 212 215 209
193 220 201 203 191 235 219 212 207 224 222 240 270 248 155 73 110 245 297 6 0 298 196 197 196 196 195 200 198 199 203 204 200 195 199 201 205 206 207 212 209 211 214 215
104 216 218 199 174 191 229 223 231 230 247 231 228 234 252 257 252 290 333 343 336 296 204 193 194 199 198 200 199 202 200 204 201 197 200 206 207 208 213 209 212 211 213 217
258 218 257 237 221 213 204 222 222 239 228 233 239 249 238 221 271 301 325 327 326 311 244 205 202 202 203 201 201 200 200 205 200 201 205 207 210 211 214 215 211 212 212 217
316 199 263 64 63 239 268 211 216 229 239 244 242 240 243 259 287 322 308 305 314 321 286 230 213 207 209 207 203 200 204 202 203 201 207 207 206 211 215 214 213 215 215 217
325 146 272 212 192 221 231 219 239 246 241 246 253 261 288 318 306 301 318 324 322 321 326 276 224 214 210 212 212 206 203 200 203 201 205 206 202 204 208 213 211 211 217 218
294 256 233 218 176 226 233 222 224 230 231 246 244 255 18 309 318 322 315 327 329 329 321 297 264 224 217 214 206 211 208 206 205 204 205 205 203 204 205 209 214 214 215 218
207 233 240 257 192 223 89 46 45 262 53 19 348 4 351 332 317 304 29 359 341 331 324 309 288 247 227 219 211 208 205 202 207 210 206 203 205 208 205 206 211 213 215 218
250 257 211 241 223 162 148 47 19 335 104 58 5 343 346 332 303 229 25 351 338 328 316 305 293 268 240 225 214 205 207 204 206 207 208 206 203 203 204 208 209 212 217 219
216 251 267 187 253 225 69 15 342 270 183 24 2 348 350 337 346 338 340 341 336 325 316 308 300 281 264 229 208 208 206 208 208 206 207 206 205 206 206 205 208 211 216 222
189 218 226 217 238 122 15 340 306 224 46 342 339 342 342 340 313 306 329 332 336 328 320 314 295 281 268 233 211 209 208 213 210 206 205 203 204 206 206 207 206 208 217 228
207 213 203 241 236 225 6 62 344 12 337 324 330 328 334 326 320 325 335 337 338 331 331 326 305 297 271 228 211 209 214 213 210 208 209 204 202 204 202 209 211 214 215 219
244 317 346 331 51 54 82 93 61 357 335 329 322 330 340 327 330 328 341 345 346 339 341 340 325 305 264 222 220 214 215 210 209 209 210 208 204 204 213 197 208 212 212 228
182 300 271 322 126 46 338 121 91 10 337 333 330 328 349 331 328 335 349 347 357 350 347 351 0 0 6 300 226 229 209 205 207 209 209 209 208 206 208 213 206 216 216 216
1 327 284 272 275 318 225 50 356 350 345 345 331 335 353 340 342 344 359 351 354 360 346 359 13 12 10 10 18 2 280 200 206 207 209 208 210 203 211 217 217 216 222 223
238 280 271 281 48 333 314 334 327 322 338 330 331 330 359 349 352 353 6 359 357 2 355 359 7 13 11 14 12 7 355 337 217 208 206 202 210 211 212 220 220 240 253 222